This demonstration page uses our WeatherBlox Daily Observations layout. Learn more.

Left ArrowRight Arrow

47.50024, -111.30081

Hourly Observations for April 23, 2019

Temp ( °F °C ) Dew Point ( °F °C ) Humidity (%) Winds ( mph kmh ) Pressure ( in mb ) Visibility ( mi km ) Precip ( " mm )
12:53 am 00:53 Clear 55 12.8 32 0 42 42 SW 20 31 29.93 1014 10 16 0.00 0.00
1:53 am 01:53 Clear 55 12.8 33 0.6 44 44 SW 18 30 29.92 1013 10 16 0.00 0.00
2:53 am 02:53 Clear 54 12.2 33 0.6 45 45 SW 17 28 29.92 1013 10 16 0.00 0.00
3:53 am 03:53 Mostly Cloudy 54 12.2 32 0 43 43 SW 16 26 29.93 1014 10 16 0.00 0.00
4:53 am 04:53 Mostly Clear 52 11.1 34 1.1 50 50 SW 12 19 29.94 1014 10 16 0.00 0.00
5:53 am 05:53 Clear 52 11.1 35 1.7 53 53 SW 14 22 29.93 1014 10 16 0.00 0.00
6:53 am 06:53 Sunny 51 10.6 36 2.2 56 56 SW 12 19 29.95 1014 10 16 0.00 0.00
7:53 am 07:53 Mostly Cloudy 52 11.1 36 2.2 55 55 SW 13 20 29.97 1015 10 16 0.00 0.00
8:53 am 08:53 Mostly Sunny 54 12.2 37 2.8 53 53 SW 23 37 29.95 1014 10 16 0.00 0.00
9:53 am 09:53 Sunny 57 13.9 39 3.9 51 51 WSW 17 28 29.96 1015 10 16 0.00 0.00
10:53 am 10:53 Sunny 61 16.1 39 3.9 44 44 WSW 24 39 29.92 1013 10 16 0.00 0.00
11:53 am 11:53 Sunny 64 17.8 38 3.3 38 38 W 24 39 29.91 1013 10 16 0.00 0.00
12:53 pm 12:53 Sunny 65 18.3 37 2.8 36 36 W 28 44 29.89 1012 10 16 0.00 0.00
1:53 pm 13:53 Mostly Sunny 65 18.3 39 3.9 39 39 W 24 39 29.87 1012 10 16 0.00 0.00
2:53 pm 14:53 Sunny 63 17.2 39 3.9 41 41 WSW 30 48 29.86 1011 10 16 0.00 0.00
3:53 pm 15:53 Sunny 67 19.4 41 5 39 39 WSW 40 65 29.82 1010 10 16 0.00 0.00
4:53 pm 16:53 Sunny 64 17.8 41 5 43 43 WSW 25 41 29.87 1011 10 16 0.00 0.00
5:53 pm 17:53 Sunny 62 16.7 41 5 46 46 WSW 26 43 29.86 1011 10 16 0.00 0.00
6:53 pm 18:53 Cloudy 61 16.1 41 5 48 48 SW 20 31 29.87 1011 10 16 0.00 0.00
7:53 pm 19:53 Mostly Cloudy 57 13.9 41 5 55 55 SW 10 17 29.88 1012 10 16 0.00 0.00
8:53 pm 20:53 Clear 56 13.3 40 4.4 55 55 WSW 16 26 29.88 1012 10 16 0.00 0.00
9:53 pm 21:53 Mostly Clear 53 11.7 39 3.9 59 59 SW 8 13 29.91 1013 10 16 0.00 0.00
10:53 pm 22:53 Mostly Cloudy 55 12.8 39 3.9 55 55 SSW 14 22 29.89 1012 10 16 0.00 0.00
11:53 pm 23:53 Mostly Cloudy 53 11.7 40 4.4 61 61 SW 15 24 29.88 1012 10 16 0.00 0.00

Powered by AerisWeather